Weather Roundup
Issued by NWS

Home | Current Version | Previous Version | Graphics & Text | Print | Product List | Glossary Off
Versions: 1 2 3 4 5 6 7 8 9 10 11 12 13 14 15 16 17 18 19 20 21 22 23 24 25 26 27 28 29 30 31 32 33 34 35 36 37 38 39 40 41 42 43 44 45 46 47 48 49 50

000
NZUS93 KARX 281759
HRRWXR

CURRENT HOURLY OBSERVATIONS ACROSS
MUCH OF THE UPPER MISSISSIPPI VALLEY
NATIONAL WEATHER SERVICE LA CROSSE WI
100 PM CDT THU APR 28 2016


...SOUTHEAST MINNESOTA...


CITY           SKY/WX    TMP DP  RH WIND       PRES   REMARKS
ROCHESTER      CLOUDY    41  35  79 NE15      29.94R
ROCHESTER/MAYO CLOUDY    41  32  71 NE12G20   29.95R
WINONA         DRIZZLE   41  34  75 E9        29.97R
AUSTIN         CLOUDY    43  36  75 E10       29.92R
ALBERT LEA     NOT AVBL
DODGE CENTER   CLOUDY    39  34  81 E15       29.94R WCI  31
PRESTON        CLOUDY    42  33  71 E12       29.92S
OWATONNA       CLOUDY    41  34  75 NE10      29.95R
FARIBAULT      NOT AVBL
$$

...ELSEWHERE IN MINNESOTA...


CITY           SKY/WX    TMP DP  RH WIND       PRES   REMARKS
MINNEAPOLIS    CLOUDY    42  35  76 NE14      30.00S
INTNL FALLS    CLOUDY    49  22  34 NE10G20   30.15S
DULUTH         CLOUDY    49  22  34 E24G32    30.08S
RED WING       CLOUDY    43  32  65 E12G20    29.97S
REDWOOD FALLS  CLOUDY    39  34  82 NE10      30.00R WCI  32
MANKATO        CLOUDY    39  34  81 NE13      29.96S WCI  32
WORTHINGTON    CLOUDY    39  36  89 N10       29.95R WCI  32
FAIRMONT       CLOUDY    39  30  70 NE13      29.94R WCI  32
$$

...SOUTHWEST WISCONSIN...


CITY           SKY/WX    TMP DP  RH WIND       PRES   REMARKS
LA CROSSE      CLOUDY    43  33  68 E12       29.96R
PRAIRIE DU CHI CLOUDY    46  39  75 E7        29.91R
BOSCOBEL       CLOUDY    45  39  79 NE9       29.93R
LONE ROCK      NOT AVBL
PLATTEVILLE    CLOUDY    44  42  91 E13       29.90R
FORT MC COY    LGT RAIN  40  37  90 NE9       29.98R WCI  34
CAMP DOUGLAS   LGT RAIN  39  39 100 E18       29.97R WCI  30
MAUSTON-NEW LI LGT RAIN  39  37  90 E8        29.96R WCI  34
VIROQUA        CLOUDY    40  37  87 E12G17    29.93R WCI  33
WIS DELLS      DRIZZLE   40  38  93 NE12G18   29.95R WCI  33
$$

...ELSEWHERE IN WISCONSIN...


CITY           SKY/WX    TMP DP  RH WIND       PRES   REMARKS
MILWAUKEE      CLOUDY    40  37  89 NE17      29.96S WCI  31
MADISON        CLOUDY    41  37  86 E12       29.95R
GREEN BAY      LGT RAIN  43  31  62 E12       30.06R
EAU CLAIRE     NOT AVBL
BLACK RVR FLS  RAIN      39  38  96 E10       29.98R WCI  32
MEDFORD        CLOUDY    46  22  39 E9        30.00S
WAUSAU         LGT RAIN  46  25  43 E10       30.01R
WIS RAPIDS     LGT RAIN  41  38  89 E13G22    30.01S
MARSHFIELD     LGT RAIN  40  34  79 E10       30.00R WCI  33
RICE LAKE      CLOUDY    49  22  34 E13G20    30.02S
$$

...NORTHEAST IOWA...


CITY           SKY/WX    TMP DP  RH WIND       PRES   REMARKS
WATERLOO       CLOUDY    49  46  90 E9        29.86R FOG
DUBUQUE        CLOUDY    46  43  89 E12       29.88R
DECORAH        CLOUDY    43  43 100 E10       29.89S FOG
MASON CITY     LGT RAIN  43  42  97 NE10      29.91S FOG
CHARLES CITY   CLOUDY    45  45 100 E10       29.89R
OELWEIN        CLOUDY    48  48 100 E10G18    29.87R
$$

...ELSEWHERE IN IOWA...


CITY           SKY/WX    TMP DP  RH WIND       PRES   REMARKS
DES MOINES     CLOUDY    54  46  74 W13       29.87R
IOWA CITY      CLOUDY    52  48  86 SW10      29.87R
FORT DODGE     CLOUDY    48  43  81 NW5       29.89R
MARSHALLTOWN   CLOUDY    51  47  86 SE3       29.85R
CEDAR RAPIDS   RAIN      50  50 100 E8        29.84R VSB 1
$$

...NORTHERN ILLINOIS...


CITY           SKY/WX    TMP DP  RH WIND       PRES   REMARKS
CHICAGO-OHARE  CLOUDY    46  42  86 NE9       29.90R
CHICAGO-MIDWAY CLOUDY    49  42  77 NE12      29.89S
MOLINE         CLOUDY    53  47  79 E8        29.85S HAZE
ROCKFORD       CLOUDY    50  42  74 NE10      29.92R
PEORIA         PTSUNNY   60  52  74 NE5       29.85R
$$

NOTE: "FAIR" INDICATES FEW OR NO CLOUDS BELOW 12,000 FEET WITH NO
SIGNIFICANT WEATHER AND/OR OBSTRUCTIONS TO VISIBILITY. WIND
SPEEDS ARE IN MILES-PER-HOUR.




USA.gov is the U.S. government's official web portal to all federal, state and local government web resources and services.